Location: Tr�vern
(48.0333°N, 4.6000°W)
Time: 08:23:10
(UTC+00:00)

Cosmos 2278 - Pass Details

Date: 14 July 2020
Orbit: 838 x 854 km, 71.1° (Epoch: 04 August)

Event Time Altitude Azimuth Distance (km) Brightness Sun altitude
Rises 03:42:44 0° 325° (NW) 3,434 7.0 -7.4°
Reaches altitude 10° 03:45:26 10° 316° (NW) 2,494 6.2 -7.1°
Maximum altitude 03:50:23 31° 255° (WSW) 1,448 4.5 -6.5°
Drops below altitude 10° 03:55:20 10° 195° (SSW) 2,476 5.6 -5.9°
Sets 03:58:00 0° 185° (S) 3,406 6.4 -5.5°
